Private Wetterstation Wechselburg
Wetterdaten: Montag, 16.12.2019
Datum Zeit Temp. +2m Bodentemp. Temp.+5cm Temp. Wind Windchill X Diff Temp. Feuchte +2m Feuchte +5cm Luftdruck Regen Wind Richtung Richtung Sonnenschein Taupunkt Windchill Windben
16.12.2019 00:00 5,6 C 6,5 C 4,7 C 5,3 C 4,8 C 0,0 C 85 % 86 % 1013,0 hPa 0,0 l/m 1,9 km/h (1 Bft) NW 315 0 min 3,3 C 4,8 C 1,6 km/h (1 Bft)
16.12.2019 00:05 5,6 C 6,5 C 4,7 C 5,3 C 4,8 C 0,0 C 85 % 86 % 1013,0 hPa 0,0 l/m 2,1 km/h (1 Bft) NW 315 0 min 3,3 C 4,8 C 3,7 km/h (1 Bft)
16.12.2019 00:10 5,7 C 6,5 C 4,8 C 5,5 C 5,0 C 0,0 C 85 % 86 % 1013,0 hPa 0,0 l/m 3,2 km/h (1 Bft) SO 135 0 min 3,4 C 5,0 C 5,8 km/h (2 Bft)
16.12.2019 00:15 5,9 C 6,5 C 4,9 C 5,6 C 5,1 C 0,0 C 85 % 86 % 1013,0 hPa 0,0 l/m 3,5 km/h (1 Bft) W 270 0 min 3,6 C 5,1 C 8,2 km/h (2 Bft)
16.12.2019 00:20 6,1 C 6,5 C 5,0 C 5,8 C 5,1 C 0,0 C 85 % 85 % 1012,8 hPa 0,0 l/m 4,0 km/h (1 Bft) W-SW 247 0 min 3,8 C 5,1 C 4,3 km/h (1 Bft)
16.12.2019 00:25 6,1 C 6,5 C 5,1 C 5,8 C 5,2 C 0,0 C 85 % 85 % 1012,8 hPa 0,0 l/m 4,0 km/h (1 Bft) O-SO 112 0 min 3,8 C 5,2 C 11,1 km/h (2 Bft)
16.12.2019 00:30 6,1 C 6,5 C 5,1 C 5,9 C 5,4 C 0,0 C 85 % 85 % 1012,8 hPa 0,0 l/m 3,5 km/h (1 Bft) W 270 0 min 3,8 C 5,4 C 3,5 km/h (1 Bft)
16.12.2019 00:35 6,1 C 6,5 C 5,1 C 5,9 C 5,5 C 0,0 C 84 % 85 % 1012,8 hPa 0,0 l/m 2,9 km/h (1 Bft) SO 135 0 min 3,6 C 5,5 C 4,3 km/h (1 Bft)
16.12.2019 00:40 6,1 C 6,5 C 5,1 C 5,9 C 5,4 C 0,0 C 84 % 85 % 1013,6 hPa 0,0 l/m 2,7 km/h (1 Bft) S 180 0 min 3,6 C 5,4 C 4,5 km/h (1 Bft)
16.12.2019 00:45 6,1 C 6,5 C 5,0 C 5,8 C 5,3 C 0,0 C 84 % 85 % 1013,6 hPa 0,0 l/m 2,9 km/h (1 Bft) S-SW 202 0 min 3,6 C 5,3 C 6,1 km/h (2 Bft)
16.12.2019 00:50 6,0 C 6,5 C 5,0 C 5,8 C 5,3 C 0,0 C 84 % 85 % 1013,6 hPa 0,0 l/m 2,7 km/h (1 Bft) O-NO 67 0 min 3,5 C 5,3 C 3,7 km/h (1 Bft)
16.12.2019 00:55 6,0 C 6,5 C 5,0 C 5,7 C 5,2 C 0,0 C 84 % 85 % 1013,6 hPa 0,0 l/m 2,4 km/h (1 Bft) NW 315 0 min 3,5 C 5,2 C 2,1 km/h (1 Bft)
16.12.2019 01:00 6,1 C 6,5 C 5,0 C 5,8 C 5,2 C 0,0 C 84 % 85 % 1012,9 hPa 0,0 l/m 2,7 km/h (1 Bft) S-SO 157 0 min 3,6 C 5,2 C 4,8 km/h (1 Bft)
16.12.2019 01:05 6,0 C 6,5 C 4,9 C 5,7 C 5,0 C 0,0 C 83 % 85 % 1012,9 hPa 0,0 l/m 2,6 km/h (1 Bft) S 180 0 min 3,3 C 5,0 C 2,7 km/h (1 Bft)
16.12.2019 01:10 6,0 C 6,5 C 4,8 C 5,6 C 4,8 C 0,0 C 83 % 85 % 1012,9 hPa 0,0 l/m 1,8 km/h (1 Bft) S-SO 157 0 min 3,3 C 4,8 C 6,9 km/h (2 Bft)
16.12.2019 01:15 5,9 C 6,5 C 4,7 C 5,5 C 4,7 C 0,0 C 83 % 85 % 1012,9 hPa 0,0 l/m 1,8 km/h (1 Bft) N-NW 337 0 min 3,2 C 4,7 C 3,2 km/h (1 Bft)
16.12.2019 01:20 5,8 C 6,5 C 4,6 C 5,4 C 4,6 C 0,0 C 83 % 85 % 1013,2 hPa 0,0 l/m 1,4 km/h (1 Bft) W-NW 292 0 min 3,1 C 4,6 C 2,6 km/h (1 Bft)
16.12.2019 01:25 5,7 C 6,5 C 4,6 C 5,3 C 4,6 C 0,0 C 83 % 85 % 1013,2 hPa 0,0 l/m 1,3 km/h (1 Bft) N-NO 22 0 min 3,0 C 4,6 C 1,8 km/h (1 Bft)
16.12.2019 01:30 5,7 C 6,5 C 4,7 C 5,4 C 4,8 C 0,0 C 84 % 85 % 1013,2 hPa 0,0 l/m 2,1 km/h (1 Bft) O-SO 112 0 min 3,2 C 4,8 C 6,9 km/h (2 Bft)
16.12.2019 01:35 5,9 C 6,5 C 4,8 C 5,7 C 5,2 C 0,0 C 84 % 85 % 1013,2 hPa 0,0 l/m 3,2 km/h (1 Bft) SO 135 0 min 3,4 C 5,2 C 4,5 km/h (1 Bft)
16.12.2019 01:40 6,0 C 6,5 C 4,9 C 5,6 C 4,7 C 0,0 C 84 % 85 % 1013,2 hPa 0,0 l/m 5,3 km/h (1 Bft) S 180 0 min 3,5 C 3,6 C 7,9 km/h (2 Bft)
16.12.2019 01:45 6,1 C 6,5 C 4,9 C 5,6 C 4,6 C 0,0 C 84 % 85 % 1013,2 hPa 0,0 l/m 5,8 km/h (2 Bft) SO 135 0 min 3,6 C 3,3 C 9,7 km/h (2 Bft)
16.12.2019 01:50 6,0 C 6,5 C 5,0 C 5,6 C 4,8 C 0,0 C 84 % 85 % 1013,2 hPa 0,0 l/m 5,3 km/h (1 Bft) W-SW 247 0 min 3,5 C 3,7 C 3,9 km/h (1 Bft)
16.12.2019 01:55 6,0 C 6,5 C 5,0 C 5,6 C 4,9 C 0,0 C 84 % 85 % 1013,2 hPa 0,0 l/m 5,0 km/h (1 Bft) SW 225 0 min 3,5 C 4,0 C 5,5 km/h (1 Bft)
16.12.2019 02:00 6,1 C 6,5 C 5,1 C 6,0 C 5,7 C 0,0 C 84 % 85 % 1013,5 hPa 0,0 l/m 3,4 km/h (1 Bft) S-SW 202 0 min 3,6 C 5,7 C 0,0 km/h (0 Bft)
16.12.2019 02:05 6,1 C 6,5 C 5,1 C 6,0 C 5,8 C 0,0 C 84 % 85 % 1013,5 hPa 0,0 l/m 2,7 km/h (1 Bft) S-SO 157 0 min 3,6 C 5,8 C 6,4 km/h (2 Bft)
16.12.2019 02:10 6,2 C 6,5 C 5,1 C 6,0 C 5,6 C 0,0 C 84 % 85 % 1013,5 hPa 0,0 l/m 3,9 km/h (1 Bft) S 180 0 min 3,7 C 5,6 C 7,2 km/h (2 Bft)
16.12.2019 02:15 6,3 C 6,5 C 5,2 C 6,0 C 5,3 C 0,0 C 84 % 85 % 1013,5 hPa 0,0 l/m 5,1 km/h (1 Bft) S-SO 157 0 min 3,8 C 4,4 C 7,4 km/h (2 Bft)
16.12.2019 02:20 6,3 C 6,5 C 5,2 C 6,0 C 5,3 C 0,0 C 84 % 85 % 1013,5 hPa 0,0 l/m 5,5 km/h (1 Bft) S 180 0 min 3,8 C 4,2 C 5,6 km/h (1 Bft)
16.12.2019 02:25 6,4 C 6,5 C 5,3 C 6,0 C 5,3 C 0,0 C 84 % 85 % 1013,5 hPa 0,0 l/m 5,5 km/h (1 Bft) S 180 0 min 3,9 C 4,2 C 8,4 km/h (2 Bft)
16.12.2019 02:30 6,4 C 6,5 C 5,3 C 6,2 C 5,8 C 0,0 C 84 % 85 % 1013,5 hPa 0,0 l/m 4,5 km/h (1 Bft) S-SO 157 0 min 3,9 C 5,8 C 3,5 km/h (1 Bft)
16.12.2019 02:35 6,4 C 6,5 C 5,2 C 6,4 C 6,3 C 0,0 C 84 % 85 % 1013,5 hPa 0,0 l/m 3,4 km/h (1 Bft) S-SO 157 0 min 3,9 C 6,3 C 4,3 km/h (1 Bft)
16.12.2019 02:40 6,4 C 6,5 C 5,1 C 6,4 C 6,4 C 0,0 C 83 % 85 % 1013,9 hPa 0,0 l/m 1,9 km/h (1 Bft) O-NO 67 0 min 3,7 C 6,4 C 1,6 km/h (1 Bft)
16.12.2019 02:45 6,4 C 6,5 C 5,1 C 6,4 C 6,3 C 0,0 C 83 % 85 % 1013,9 hPa 0,0 l/m 1,9 km/h (1 Bft) O-SO 112 0 min 3,7 C 6,3 C 4,5 km/h (1 Bft)
16.12.2019 02:50 6,4 C 6,5 C 5,2 C 6,4 C 6,3 C 0,0 C 84 % 85 % 1013,9 hPa 0,0 l/m 3,4 km/h (1 Bft) S 180 0 min 3,9 C 6,3 C 8,0 km/h (2 Bft)
16.12.2019 02:55 6,5 C 6,5 C 5,3 C 6,4 C 6,1 C 0,0 C 84 % 85 % 1013,9 hPa 0,0 l/m 4,0 km/h (1 Bft) S-SO 157 0 min 4,0 C 6,1 C 5,5 km/h (1 Bft)
16.12.2019 03:00 6,5 C 6,5 C 5,3 C 6,5 C 6,4 C 0,0 C 84 % 85 % 1014,1 hPa 0,0 l/m 3,4 km/h (1 Bft) SO 135 0 min 4,0 C 6,4 C 0,0 km/h (0 Bft)
16.12.2019 03:05 6,5 C 6,5 C 5,3 C 6,5 C 6,5 C 0,0 C 83 % 85 % 1014,1 hPa 0,0 l/m 2,7 km/h (1 Bft) S-SO 157 0 min 3,8 C 6,5 C 3,7 km/h (1 Bft)
16.12.2019 03:10 6,5 C 6,5 C 5,4 C 6,5 C 6,5 C 0,0 C 83 % 85 % 1014,1 hPa 0,0 l/m 2,4 km/h (1 Bft) S 180 0 min 3,8 C 6,5 C 2,6 km/h (1 Bft)
16.12.2019 03:15 6,5 C 6,5 C 5,3 C 6,5 C 6,4 C 0,0 C 83 % 85 % 1014,1 hPa 0,0 l/m 1,9 km/h (1 Bft) W 270 0 min 3,8 C 6,4 C 0,0 km/h (0 Bft)
16.12.2019 03:20 6,4 C 6,5 C 5,3 C 6,4 C 6,4 C 0,0 C 83 % 85 % 1013,4 hPa 0,0 l/m 1,0 km/h (0 Bft) O-NO 67 0 min 3,7 C 6,4 C 0,0 km/h (0 Bft)
16.12.2019 03:25 6,5 C 6,4 C 5,2 C 6,4 C 6,3 C 0,0 C 83 % 85 % 1013,4 hPa 0,0 l/m 0,6 km/h (0 Bft) S 180 0 min 3,8 C 6,3 C 2,3 km/h (1 Bft)
16.12.2019 03:30 6,4 C 6,5 C 5,3 C 6,3 C 6,2 C 0,0 C 83 % 85 % 1013,4 hPa 0,0 l/m 0,3 km/h (0 Bft) N 360 0 min 3,7 C 6,2 C 0,0 km/h (0 Bft)
16.12.2019 03:35 6,3 C 6,5 C 5,2 C 6,2 C 6,1 C 0,0 C 83 % 85 % 1013,4 hPa 0,0 l/m 0,3 km/h (0 Bft) N 360 0 min 3,6 C 6,1 C 0,0 km/h (0 Bft)
16.12.2019 03:40 6,3 C 6,5 C 5,2 C 6,2 C 6,1 C 0,0 C 83 % 85 % 1013,2 hPa 0,0 l/m 0,3 km/h (0 Bft) N 360 0 min 3,6 C 6,1 C 0,0 km/h (0 Bft)
16.12.2019 03:45 6,3 C 6,4 C 5,2 C 6,2 C 6,1 C 0,0 C 83 % 85 % 1013,2 hPa 0,0 l/m 0,3 km/h (0 Bft) N 360 0 min 3,6 C 6,1 C 0,0 km/h (0 Bft)
16.12.2019 03:50 6,3 C 6,5 C 5,2 C 6,2 C 6,1 C 0,0 C 83 % 85 % 1013,2 hPa 0,0 l/m 0,2 km/h (0 Bft) S-SO 157 0 min 3,6 C 6,1 C 0,0 km/h (0 Bft)
16.12.2019 03:55 6,3 C 6,5 C 5,1 C 6,2 C 6,1 C 0,0 C 83 % 85 % 1013,2 hPa 0,0 l/m 0,2 km/h (0 Bft) SO 135 0 min 3,6 C 6,1 C 0,0 km/h (0 Bft)
16.12.2019 04:00 6,3 C 6,5 C 5,1 C 6,2 C 6,1 C 0,0 C 84 % 85 % 1013,5 hPa 0,0 l/m 0,5 km/h (0 Bft) W-SW 247 0 min 3,8 C 6,1 C 0,0 km/h (0 Bft)
16.12.2019 04:05 6,3 C 6,5 C 5,1 C 6,2 C 6,1 C 0,0 C 84 % 85 % 1013,5 hPa 0,0 l/m 0,5 km/h (0 Bft) NO 45 0 min 3,8 C 6,1 C 0,0 km/h (0 Bft)
16.12.2019 04:10 6,1 C 6,5 C 4,9 C 6,1 C 6,1 C 0,0 C 84 % 85 % 1013,5 hPa 0,0 l/m 0,2 km/h (0 Bft) N-NO 22 0 min 3,6 C 6,1 C 1,6 km/h (1 Bft)
16.12.2019 04:15 6,1 C 6,5 C 5,0 C 6,1 C 6,1 C 0,0 C 84 % 86 % 1013,5 hPa 0,0 l/m 0,2 km/h (0 Bft) N-NW 337 0 min 3,6 C 6,1 C 1,6 km/h (1 Bft)
16.12.2019 04:20 6,1 C 6,5 C 4,9 C 6,1 C 6,1 C 0,0 C 84 % 86 % 1013,6 hPa 0,0 l/m 0,3 km/h (0 Bft) N-NO 22 0 min 3,6 C 6,1 C 1,8 km/h (1 Bft)
16.12.2019 04:25 6,0 C 6,5 C 4,9 C 6,1 C 6,1 C 0,1 C 84 % 86 % 1013,6 hPa 0,0 l/m 0,3 km/h (0 Bft) NO 45 0 min 3,5 C 6,1 C 0,0 km/h (0 Bft)
16.12.2019 04:30 5,9 C 6,5 C 4,8 C 5,9 C 5,9 C 0,0 C 84 % 86 % 1013,6 hPa 0,0 l/m 0,2 km/h (0 Bft) W-SW 247 0 min 3,4 C 5,9 C 0,0 km/h (0 Bft)
16.12.2019 04:35 5,9 C 6,5 C 4,8 C 5,9 C 5,8 C 0,0 C 84 % 86 % 1013,6 hPa 0,0 l/m 0,0 km/h (0 Bft) O 90 0 min 3,4 C 5,8 C 0,0 km/h (0 Bft)
16.12.2019 04:40 5,8 C 6,5 C 4,7 C 5,7 C 5,6 C 0,0 C 84 % 86 % 1012,9 hPa 0,0 l/m 0,0 km/h (0 Bft) W-SW 247 0 min 3,3 C 5,6 C 0,0 km/h (0 Bft)
16.12.2019 04:45 5,7 C 6,5 C 4,6 C 5,7 C 5,6 C 0,0 C 84 % 86 % 1012,9 hPa 0,0 l/m 0,2 km/h (0 Bft) NO 45 0 min 3,2 C 5,6 C 0,0 km/h (0 Bft)
16.12.2019 04:50 5,7 C 6,5 C 4,7 C 5,7 C 5,7 C 0,0 C 84 % 86 % 1012,9 hPa 0,0 l/m 0,2 km/h (0 Bft) W-NW 292 0 min 3,2 C 5,7 C 0,0 km/h (0 Bft)
16.12.2019 04:55 5,7 C 6,5 C 4,9 C 5,8 C 5,8 C 0,1 C 84 % 86 % 1012,9 hPa 0,0 l/m 0,0 km/h (0 Bft) NO 45 0 min 3,2 C 5,8 C 1,8 km/h (1 Bft)
16.12.2019 05:00 5,9 C 6,5 C 5,0 C 6,1 C 6,1 C 0,2 C 85 % 86 % 1013,0 hPa 0,0 l/m 0,2 km/h (0 Bft) N-NO 22 0 min 3,6 C 6,1 C 0,0 km/h (0 Bft)
16.12.2019 05:05 5,9 C 6,5 C 5,0 C 6,2 C 6,2 C 0,3 C 85 % 86 % 1013,0 hPa 0,0 l/m 0,2 km/h (0 Bft) SW 225 0 min 3,6 C 6,2 C 0,0 km/h (0 Bft)
16.12.2019 05:10 6,0 C 6,5 C 5,0 C 6,2 C 6,2 C 0,2 C 85 % 86 % 1013,0 hPa 0,0 l/m 0,5 km/h (0 Bft) W 270 0 min 3,7 C 6,2 C 0,0 km/h (0 Bft)
16.12.2019 05:15 6,0 C 6,5 C 5,0 C 6,2 C 6,2 C 0,2 C 85 % 86 % 1013,0 hPa 0,0 l/m 0,5 km/h (0 Bft) NW 315 0 min 3,7 C 6,2 C 0,0 km/h (0 Bft)
16.12.2019 05:20 5,9 C 6,5 C 4,9 C 6,1 C 6,1 C 0,2 C 85 % 86 % 1013,1 hPa 0,0 l/m 0,0 km/h (0 Bft) O-NO 67 0 min 3,6 C 6,1 C 0,0 km/h (0 Bft)
16.12.2019 05:25 5,9 C 6,6 C 4,9 C 6,1 C 6,1 C 0,2 C 85 % 86 % 1013,1 hPa 0,0 l/m 0,0 km/h (0 Bft) O-NO 67 0 min 3,6 C 6,1 C 0,0 km/h (0 Bft)
16.12.2019 05:30 5,9 C 6,6 C 4,8 C 6,1 C 6,1 C 0,2 C 85 % 86 % 1013,1 hPa 0,0 l/m 0,0 km/h (0 Bft) O-NO 67 0 min 3,6 C 6,1 C 0,0 km/h (0 Bft)
16.12.2019 05:35 5,9 C 6,6 C 4,7 C 5,9 C 5,9 C 0,0 C 85 % 86 % 1013,1 hPa 0,0 l/m 0,0 km/h (0 Bft) NW 315 0 min 3,6 C 5,9 C 0,0 km/h (0 Bft)
16.12.2019 05:40 5,7 C 6,6 C 4,7 C 5,8 C 5,8 C 0,1 C 85 % 86 % 1013,1 hPa 0,0 l/m 0,0 km/h (0 Bft) NW 315 0 min 3,4 C 5,8 C 0,0 km/h (0 Bft)
16.12.2019 05:45 5,6 C 6,6 C 4,7 C 5,6 C 5,6 C 0,0 C 85 % 86 % 1013,1 hPa 0,0 l/m 0,0 km/h (0 Bft) O-SO 112 0 min 3,3 C 5,6 C 0,0 km/h (0 Bft)
16.12.2019 05:50 5,6 C 6,6 C 4,6 C 5,5 C 5,4 C 0,0 C 85 % 86 % 1013,1 hPa 0,0 l/m 0,0 km/h (0 Bft) O-NO 67 0 min 3,3 C 5,4 C 0,0 km/h (0 Bft)
16.12.2019 05:55 5,6 C 6,6 C 4,6 C 5,5 C 5,3 C 0,0 C 85 % 86 % 1013,1 hPa 0,0 l/m 0,0 km/h (0 Bft) O-NO 67 0 min 3,3 C 5,3 C 1,6 km/h (1 Bft)
16.12.2019 06:00 5,6 C 6,7 C 4,5 C 5,5 C 5,3 C 0,0 C 85 % 86 % 1013,2 hPa 0,0 l/m 0,3 km/h (0 Bft) NO 45 0 min 3,3 C 5,3 C 0,0 km/h (0 Bft)
16.12.2019 06:05 5,5 C 6,7 C 4,6 C 5,4 C 5,3 C 0,0 C 85 % 87 % 1013,2 hPa 0,0 l/m 0,3 km/h (0 Bft) NW 315 0 min 3,2 C 5,3 C 0,0 km/h (0 Bft)
16.12.2019 06:10 5,5 C 6,7 C 4,6 C 5,5 C 5,4 C 0,0 C 86 % 87 % 1013,2 hPa 0,0 l/m 0,0 km/h (0 Bft) NO 45 0 min 3,3 C 5,4 C 0,0 km/h (0 Bft)
16.12.2019 06:15 5,5 C 6,7 C 4,5 C 5,5 C 5,4 C 0,0 C 86 % 87 % 1013,2 hPa 0,0 l/m 0,0 km/h (0 Bft) SW 225 0 min 3,3 C 5,4 C 0,0 km/h (0 Bft)
16.12.2019 06:20 5,5 C 6,7 C 4,5 C 5,5 C 5,4 C 0,0 C 86 % 87 % 1012,9 hPa 0,0 l/m 0,0 km/h (0 Bft) S-SO 157 0 min 3,3 C 5,4 C 0,0 km/h (0 Bft)
16.12.2019 06:25 5,3 C 6,8 C 4,5 C 5,4 C 5,4 C 0,1 C 86 % 87 % 1012,9 hPa 0,0 l/m 0,0 km/h (0 Bft) S-SO 157 0 min 3,2 C 5,4 C 0,0 km/h (0 Bft)
16.12.2019 06:30 5,3 C 6,8 C 4,5 C 5,4 C 5,4 C 0,1 C 86 % 87 % 1012,9 hPa 0,0 l/m 0,0 km/h (0 Bft) N-NO 22 0 min 3,2 C 5,4 C 0,0 km/h (0 Bft)
16.12.2019 06:35 5,3 C 6,7 C 4,4 C 5,3 C 5,3 C 0,0 C 86 % 87 % 1012,9 hPa 0,0 l/m 0,0 km/h (0 Bft) W-SW 247 0 min 3,2 C 5,3 C 0,0 km/h (0 Bft)
16.12.2019 06:40 5,2 C 6,8 C 4,4 C 5,3 C 5,3 C 0,1 C 86 % 87 % 1013,1 hPa 0,0 l/m 0,0 km/h (0 Bft) N-NW 337 0 min 3,1 C 5,3 C 0,0 km/h (0 Bft)
16.12.2019 06:45 5,3 C 6,8 C 4,4 C 5,3 C 5,3 C 0,0 C 86 % 87 % 1013,1 hPa 0,0 l/m 0,0 km/h (0 Bft) NO 45 0 min 3,2 C 5,3 C 0,0 km/h (0 Bft)
16.12.2019 06:50 5,2 C 6,8 C 4,5 C 5,3 C 5,3 C 0,1 C 86 % 87 % 1013,1 hPa 0,0 l/m 0,0 km/h (0 Bft) O-NO 67 0 min 3,1 C 5,3 C 1,6 km/h (1 Bft)
16.12.2019 06:55 5,2 C 6,8 C 4,5 C 5,3 C 5,3 C 0,1 C 86 % 87 % 1013,1 hPa 0,0 l/m 0,2 km/h (0 Bft) N-NO 22 0 min 3,1 C 5,3 C 0,0 km/h (0 Bft)
16.12.2019 07:00 5,2 C 6,7 C 4,5 C 5,3 C 5,3 C 0,1 C 86 % 87 % 1012,8 hPa 0,0 l/m 0,2 km/h (0 Bft) W-SW 247 0 min 3,1 C 5,3 C 0,0 km/h (0 Bft)
16.12.2019 07:05 5,1 C 6,7 C 4,5 C 5,3 C 5,3 C 0,2 C 86 % 87 % 1012,8 hPa 0,0 l/m 0,2 km/h (0 Bft) SW 225 0 min 3,0 C 5,3 C 0,0 km/h (0 Bft)
16.12.2019 07:10 5,1 C 6,7 C 4,5 C 5,3 C 5,3 C 0,2 C 86 % 87 % 1012,8 hPa 0,0 l/m 0,2 km/h (0 Bft) SW 225 0 min 3,0 C 5,3 C 0,0 km/h (0 Bft)
16.12.2019 07:15 5,0 C 6,8 C 4,4 C 5,2 C 5,2 C 0,2 C 86 % 87 % 1012,8 hPa 0,0 l/m 0,0 km/h (0 Bft) SW 225 0 min 2,9 C 5,2 C 0,0 km/h (0 Bft)
16.12.2019 07:20 5,0 C 6,8 C 4,4 C 5,0 C 5,0 C 0,0 C 86 % 87 % 1012,9 hPa 0,0 l/m 0,0 km/h (0 Bft) O-NO 67 0 min 2,9 C 5,0 C 0,0 km/h (0 Bft)
16.12.2019 07:25 5,0 C 6,8 C 4,4 C 5,0 C 5,0 C 0,0 C 86 % 87 % 1012,9 hPa 0,0 l/m 0,0 km/h (0 Bft) N-NO 22 0 min 2,9 C 5,0 C 0,0 km/h (0 Bft)
16.12.2019 07:30 5,0 C 6,8 C 4,4 C 5,1 C 5,1 C 0,1 C 87 % 88 % 1012,9 hPa 0,0 l/m 0,0 km/h (0 Bft) O-NO 67 0 min 3,0 C 5,1 C 0,0 km/h (0 Bft)
16.12.2019 07:35 5,1 C 6,8 C 4,5 C 5,2 C 5,2 C 0,1 C 87 % 88 % 1012,9 hPa 0,0 l/m 0,0 km/h (0 Bft) N 360 0 min 3,1 C 5,2 C 0,0 km/h (0 Bft)
16.12.2019 07:40 5,1 C 6,8 C 4,6 C 5,4 C 5,4 C 0,3 C 87 % 88 % 1013,2 hPa 0,0 l/m 0,0 km/h (0 Bft) SW 225 0 min 3,1 C 5,4 C 0,0 km/h (0 Bft)
16.12.2019 07:45 5,1 C 6,8 C 4,7 C 5,5 C 5,5 C 0,4 C 87 % 88 % 1013,2 hPa 0,0 l/m 0,0 km/h (0 Bft) NO 45 0 min 3,1 C 5,5 C 0,0 km/h (0 Bft)
16.12.2019 07:50 5,2 C 6,7 C 4,8 C 5,7 C 5,7 C 0,5 C 87 % 88 % 1013,2 hPa 0,0 l/m 0,0 km/h (0 Bft) NO 45 0 min 3,2 C 5,7 C 0,0 km/h (0 Bft)
16.12.2019 07:55 5,3 C 6,7 C 4,8 C 5,8 C 5,8 C 0,5 C 88 % 88 % 1013,2 hPa 0,0 l/m 0,0 km/h (0 Bft) O-NO 67 0 min 3,5 C 5,8 C 0,0 km/h (0 Bft)
16.12.2019 08:00 5,5 C 6,7 C 4,9 C 6,1 C 6,1 C 0,6 C 88 % 88 % 1013,4 hPa 0,0 l/m 0,0 km/h (0 Bft) N-NO 22 0 min 3,7 C 6,1 C 0,0 km/h (0 Bft)
16.12.2019 08:05 5,5 C 6,7 C 5,0 C 6,1 C 6,1 C 0,6 C 88 % 88 % 1013,4 hPa 0,0 l/m 0,3 km/h (0 Bft) SW 225 0 min 3,7 C 6,1 C 2,3 km/h (1 Bft)
16.12.2019 08:10 5,4 C 6,7 C 4,9 C 6,0 C 6,0 C 0,6 C 88 % 88 % 1013,4 hPa 0,0 l/m 0,5 km/h (0 Bft) W-NW 292 0 min 3,6 C 6,0 C 0,0 km/h (0 Bft)
16.12.2019 08:15 5,4 C 6,7 C 4,9 C 6,0 C 6,0 C 0,6 C 87 % 88 % 1013,4 hPa 0,0 l/m 0,3 km/h (0 Bft) NO 45 0 min 3,4 C 6,0 C 0,0 km/h (0 Bft)
16.12.2019 08:20 5,4 C 6,7 C 5,0 C 5,9 C 5,9 C 0,5 C 88 % 88 % 1013,2 hPa 0,0 l/m 0,2 km/h (0 Bft) N 360 5 min 3,6 C 5,9 C 0,0 km/h (0 Bft)
16.12.2019 08:25 5,5 C 6,7 C 5,0 C 5,9 C 5,9 C 0,4 C 88 % 88 % 1013,2 hPa 0,7 l/m 0,2 km/h (0 Bft) N-NO 22 5 min 3,7 C 5,9 C 0,0 km/h (0 Bft)
16.12.2019 08:30 5,5 C 6,7 C 5,1 C 6,1 C 6,1 C 0,6 C 88 % 89 % 1013,2 hPa 0,0 l/m 0,0 km/h (0 Bft) N-NO 22 5 min 3,7 C 6,1 C 0,0 km/h (0 Bft)
16.12.2019 08:35 5,6 C 6,7 C 5,2 C 6,2 C 6,2 C 0,6 C 88 % 89 % 1013,2 hPa 0,0 l/m 0,0 km/h (0 Bft) N 360 5 min 3,8 C 6,2 C 0,0 km/h (0 Bft)
16.12.2019 08:40 5,6 C 6,7 C 5,3 C 6,4 C 6,4 C 0,8 C 88 % 89 % 1012,8 hPa 0,0 l/m 0,0 km/h (0 Bft) N-NO 22 5 min 3,8 C 6,4 C 0,0 km/h (0 Bft)
16.12.2019 08:45 5,7 C 6,7 C 5,5 C 6,4 C 6,4 C 0,7 C 88 % 89 % 1012,8 hPa 0,0 l/m 0,0 km/h (0 Bft) N-NW 337 5 min 3,9 C 6,4 C 0,0 km/h (0 Bft)
16.12.2019 08:50 5,7 C 6,7 C 5,5 C 6,5 C 6,5 C 0,8 C 88 % 89 % 1012,8 hPa 0,0 l/m 0,0 km/h (0 Bft) O-NO 67 5 min 3,9 C 6,5 C 0,0 km/h (0 Bft)
16.12.2019 08:55 5,7 C 6,7 C 5,6 C 6,6 C 6,6 C 0,9 C 88 % 90 % 1012,8 hPa 0,0 l/m 0,0 km/h (0 Bft) W-SW 247 5 min 3,9 C 6,6 C 0,0 km/h (0 Bft)
16.12.2019 09:00 5,7 C 6,7 C 5,5 C 6,6 C 6,6 C 0,9 C 88 % 90 % 1013,1 hPa 0,0 l/m 0,0 km/h (0 Bft) S 180 0 min 3,9 C 6,6 C 0,0 km/h (0 Bft)
16.12.2019 09:05 5,7 C 6,7 C 5,5 C 6,6 C 6,6 C 0,9 C 88 % 90 % 1013,1 hPa 0,0 l/m 0,0 km/h (0 Bft) N-NO 22 0 min 3,9 C 6,6 C 0,0 km/h (0 Bft)
16.12.2019 09:10 5,7 C 6,7 C 5,4 C 6,5 C 6,5 C 0,8 C 88 % 90 % 1013,1 hPa 0,0 l/m 0,2 km/h (0 Bft) S-SW 202 0 min 3,9 C 6,5 C 2,1 km/h (1 Bft)
16.12.2019 09:15 5,7 C 6,7 C 5,4 C 6,4 C 6,4 C 0,7 C 88 % 90 % 1013,1 hPa 0,0 l/m 0,2 km/h (0 Bft) S-SO 157 0 min 3,9 C 6,4 C 0,0 km/h (0 Bft)
16.12.2019 09:20 5,6 C 6,7 C 5,4 C 6,2 C 6,2 C 0,6 C 88 % 90 % 1012,8 hPa 0,0 l/m 0,2 km/h (0 Bft) N 360 0 min 3,8 C 6,2 C 0,0 km/h (0 Bft)
16.12.2019 09:25 5,6 C 6,7 C 5,4 C 6,3 C 6,3 C 0,7 C 88 % 90 % 1012,8 hPa 0,0 l/m 0,0 km/h (0 Bft) N-NW 337 0 min 3,8 C 6,3 C 0,0 km/h (0 Bft)
16.12.2019 09:30 5,7 C 6,7 C 5,5 C 6,4 C 6,4 C 0,7 C 88 % 90 % 1012,8 hPa 0,0 l/m 0,0 km/h (0 Bft) NW 315 0 min 3,9 C 6,4 C 0,0 km/h (0 Bft)
16.12.2019 09:35 5,7 C 6,7 C 5,5 C 6,4 C 6,4 C 0,7 C 88 % 90 % 1012,8 hPa 0,0 l/m 0,0 km/h (0 Bft) N-NW 337 0 min 3,9 C 6,4 C 0,0 km/h (0 Bft)
16.12.2019 09:40 5,7 C 6,7 C 5,5 C 6,6 C 6,6 C 0,9 C 88 % 90 % 1012,4 hPa 0,0 l/m 0,0 km/h (0 Bft) S 180 0 min 3,9 C 6,6 C 0,0 km/h (0 Bft)
16.12.2019 09:45 5,6 C 6,7 C 5,6 C 6,6 C 6,6 C 1,0 C 88 % 90 % 1012,4 hPa 0,0 l/m 0,2 km/h (0 Bft) SW 225 0 min 3,8 C 6,6 C 0,0 km/h (0 Bft)
16.12.2019 09:50 5,6 C 6,9 C 5,7 C 6,6 C 6,6 C 1,0 C 88 % 90 % 1012,4 hPa 0,0 l/m 0,3 km/h (0 Bft) O 90 0 min 3,8 C 6,6 C 0,0 km/h (0 Bft)
16.12.2019 09:55 5,7 C 6,9 C 6,1 C 6,8 C 6,8 C 1,1 C 88 % 91 % 1012,4 hPa 0,0 l/m 0,3 km/h (0 Bft) O 90 0 min 3,9 C 6,8 C 2,9 km/h (1 Bft)
16.12.2019 10:00 6,0 C 6,9 C 6,3 C 7,1 C 7,1 C 1,1 C 88 % 91 % 1012,7 hPa 0,0 l/m 0,8 km/h (0 Bft) O-NO 67 0 min 4,2 C 7,1 C 2,3 km/h (1 Bft)
16.12.2019 10:05 6,1 C 6,8 C 6,3 C 7,2 C 7,2 C 1,1 C 88 % 91 % 1012,7 hPa 0,0 l/m 1,0 km/h (0 Bft) O-NO 67 0 min 4,3 C 7,2 C 0,0 km/h (0 Bft)
16.12.2019 10:10 6,1 C 6,8 C 6,6 C 7,3 C 7,3 C 1,2 C 88 % 91 % 1012,7 hPa 0,0 l/m 0,5 km/h (0 Bft) N-NO 22 0 min 4,3 C 7,3 C 0,0 km/h (0 Bft)
16.12.2019 10:15 6,2 C 6,8 C 6,6 C 7,4 C 7,4 C 1,2 C 88 % 91 % 1012,7 hPa 0,0 l/m 0,0 km/h (0 Bft) S 180 0 min 4,4 C 7,4 C 1,8 km/h (1 Bft)
16.12.2019 10:20 6,2 C 6,8 C 6,7 C 7,5 C 7,5 C 1,3 C 88 % 90 % 1012,8 hPa 0,0 l/m 0,0 km/h (0 Bft) W-SW 247 0 min 4,4 C 7,5 C 0,0 km/h (0 Bft)
16.12.2019 10:25 6,3 C 6,8 C 6,8 C 7,6 C 7,6 C 1,3 C 88 % 90 % 1012,8 hPa 0,0 l/m 0,2 km/h (0 Bft) O-NO 67 0 min 4,5 C 7,6 C 0,0 km/h (0 Bft)
16.12.2019 10:30 6,5 C 6,8 C 7,1 C 8,0 C 8,0 C 1,5 C 88 % 90 % 1012,8 hPa 0,0 l/m 0,2 km/h (0 Bft) O-NO 67 0 min 4,7 C 8,0 C 0,0 km/h (0 Bft)
16.12.2019 10:35 6,5 C 6,8 C 7,2 C 8,2 C 8,2 C 1,7 C 88 % 90 % 1012,8 hPa 0,0 l/m 0,0 km/h (0 Bft) N-NO 22 0 min 4,7 C 8,2 C 0,0 km/h (0 Bft)
16.12.2019 10:40 6,7 C 6,8 C 7,3 C 8,3 C 8,3 C 1,6 C 88 % 91 % 1012,6 hPa 0,0 l/m 0,2 km/h (0 Bft) O-NO 67 0 min 4,9 C 8,3 C 0,0 km/h (0 Bft)
16.12.2019 10:45 6,7 C 6,8 C 7,5 C 8,3 C 8,3 C 1,6 C 88 % 91 % 1012,6 hPa 0,0 l/m 0,2 km/h (0 Bft) NO 45 0 min 4,9 C 8,3 C 0,0 km/h (0 Bft)
16.12.2019 10:50 6,8 C 6,8 C 7,5 C 8,4 C 8,4 C 1,6 C 88 % 91 % 1012,6 hPa 0,0 l/m 0,2 km/h (0 Bft) N-NO 22 0 min 5,0 C 8,4 C 0,0 km/h (0 Bft)
16.12.2019 10:55 6,9 C 6,8 C 7,6 C 8,5 C 8,5 C 1,6 C 88 % 90 % 1012,6 hPa 0,0 l/m 0,0 km/h (0 Bft) O 90 0 min 5,1 C 8,5 C 0,0 km/h (0 Bft)
16.12.2019 11:00 7,0 C 6,8 C 7,8 C 8,6 C 8,6 C 1,6 C 88 % 90 % 1012,3 hPa 0,0 l/m 0,0 km/h (0 Bft) S 180 0 min 5,2 C 8,6 C 0,0 km/h (0 Bft)
16.12.2019 11:05 7,1 C 6,8 C 7,8 C 8,6 C 8,6 C 1,5 C 88 % 90 % 1012,3 hPa 0,0 l/m 0,0 km/h (0 Bft) S 180 0 min 5,2 C 8,6 C 0,0 km/h (0 Bft)
16.12.2019 11:10 7,2 C 6,9 C 7,9 C 8,7 C 8,7 C 1,5 C 88 % 90 % 1012,3 hPa 0,0 l/m 0,0 km/h (0 Bft) O-NO 67 0 min 5,3 C 8,7 C 0,0 km/h (0 Bft)
16.12.2019 11:15 7,3 C 6,8 C 7,9 C 8,7 C 8,7 C 1,4 C 88 % 90 % 1012,3 hPa 0,0 l/m 0,0 km/h (0 Bft) NO 45 0 min 5,4 C 8,7 C 0,0 km/h (0 Bft)
16.12.2019 11:20 7,5 C 6,9 C 7,9 C 8,9 C 8,9 C 1,4 C 88 % 90 % 1012,6 hPa 0,0 l/m 0,0 km/h (0 Bft) SW 225 0 min 5,6 C 8,9 C 0,0 km/h (0 Bft)
16.12.2019 11:25 7,4 C 6,9 C 7,9 C 8,9 C 8,9 C 1,5 C 88 % 90 % 1012,6 hPa 0,0 l/m 0,0 km/h (0 Bft) S-SW 202 0 min 5,5 C 8,9 C 0,0 km/h (0 Bft)
16.12.2019 11:30 7,5 C 6,9 C 7,9 C 9,0 C 9,0 C 1,5 C 88 % 90 % 1012,6 hPa 0,0 l/m 0,0 km/h (0 Bft) SW 225 0 min 5,6 C 9,0 C 0,0 km/h (0 Bft)
16.12.2019 11:35 7,6 C 6,9 C 8,1 C 9,2 C 9,2 C 1,6 C 88 % 90 % 1012,6 hPa 0,0 l/m 0,0 km/h (0 Bft) SW 225 0 min 5,7 C 9,2 C 0,0 km/h (0 Bft)
16.12.2019 11:40 7,6 C 6,9 C 8,4 C 10,5 C 10,5 C 2,9 C 88 % 90 % 1012,0 hPa 0,0 l/m 0,0 km/h (0 Bft) SW 225 0 min 5,7 C 10,5 C 0,0 km/h (0 Bft)
16.12.2019 11:45 7,7 C 6,9 C 8,5 C 11,2 C 11,2 C 3,5 C 88 % 90 % 1012,0 hPa 0,0 l/m 0,2 km/h (0 Bft) SW 225 5 min 5,8 C 11,2 C 1,9 km/h (1 Bft)
16.12.2019 11:50 8,0 C 6,9 C 8,6 C 11,2 C 11,2 C 3,2 C 88 % 90 % 1012,0 hPa 0,0 l/m 0,3 km/h (0 Bft) W-SW 247 0 min 6,1 C 11,2 C 0,0 km/h (0 Bft)
16.12.2019 11:55 8,1 C 6,9 C 8,7 C 11,2 C 11,2 C 3,1 C 88 % 90 % 1012,0 hPa 0,0 l/m 0,2 km/h (0 Bft) S-SW 202 0 min 6,2 C 11,2 C 0,0 km/h (0 Bft)
16.12.2019 12:00 8,3 C 6,9 C 8,7 C 11,4 C 11,4 C 3,1 C 88 % 90 % 1011,6 hPa 0,0 l/m 0,0 km/h (0 Bft) SW 225 0 min 6,4 C 11,4 C 0,0 km/h (0 Bft)
16.12.2019 12:05 8,4 C 6,8 C 8,6 C 11,5 C 11,5 C 3,1 C 88 % 90 % 1011,6 hPa 0,0 l/m 0,0 km/h (0 Bft) NW 315 0 min 6,5 C 11,5 C 1,9 km/h (1 Bft)
16.12.2019 12:10 8,8 C 6,8 C 8,8 C 11,6 C 11,6 C 2,8 C 88 % 90 % 1011,6 hPa 0,0 l/m 0,5 km/h (0 Bft) S-SO 157 0 min 6,9 C 11,6 C 0,0 km/h (0 Bft)
16.12.2019 12:15 9,0 C 6,8 C 8,9 C 11,9 C 11,9 C 2,9 C 88 % 90 % 1011,6 hPa 0,0 l/m 0,8 km/h (0 Bft) N-NO 22 0 min 7,1 C 11,9 C 1,6 km/h (1 Bft)
16.12.2019 12:20 9,5 C 6,8 C 9,0 C 11,9 C 11,9 C 2,4 C 88 % 90 % 1011,3 hPa 0,0 l/m 0,6 km/h (0 Bft) S-SO 157 0 min 7,6 C 11,9 C 1,6 km/h (1 Bft)
16.12.2019 12:25 9,9 C 6,8 C 8,9 C 11,8 C 11,8 C 1,9 C 88 % 90 % 1011,3 hPa 0,0 l/m 0,8 km/h (0 Bft) NO 45 0 min 8,0 C 11,8 C 0,0 km/h (0 Bft)
16.12.2019 12:30 10,1 C 6,8 C 8,8 C 11,6 C 11,6 C 1,5 C 87 % 90 % 1011,3 hPa 0,0 l/m 0,2 km/h (0 Bft) S 180 0 min 8,0 C 11,6 C 1,6 km/h (1 Bft)
16.12.2019 12:35 10,3 C 6,8 C 8,9 C 11,8 C 11,8 C 1,5 C 87 % 90 % 1011,3 hPa 0,0 l/m 0,5 km/h (0 Bft) SO 135 0 min 8,2 C 11,8 C 2,7 km/h (1 Bft)
16.12.2019 12:40 10,7 C 6,6 C 9,3 C 12,2 C 12,2 C 1,5 C 86 % 90 % 1011,3 hPa 0,0 l/m 0,6 km/h (0 Bft) W-SW 247 0 min 8,5 C 12,2 C 0,0 km/h (0 Bft)
16.12.2019 12:45 10,8 C 6,6 C 9,5 C 12,4 C 12,4 C 1,6 C 86 % 90 % 1011,3 hPa 0,0 l/m 1,3 km/h (1 Bft) S 180 0 min 8,6 C 12,4 C 5,6 km/h (1 Bft)
16.12.2019 12:50 11,3 C 6,6 C 9,6 C 12,8 C 12,8 C 1,5 C 84 % 89 % 1011,3 hPa 0,0 l/m 2,9 km/h (1 Bft) S 180 0 min 8,7 C 12,8 C 5,8 km/h (2 Bft)
16.12.2019 12:55 11,5 C 6,6 C 9,8 C 12,9 C 12,9 C 1,4 C 83 % 89 % 1011,3 hPa 0,0 l/m 3,9 km/h (1 Bft) S 180 0 min 8,7 C 12,9 C 7,4 km/h (2 Bft)
16.12.2019 13:00 11,9 C 6,6 C 10,2 C 13,4 C 13,4 C 1,5 C 81 % 88 % 1011,1 hPa 0,0 l/m 4,5 km/h (1 Bft) S 180 0 min 8,7 C 13,4 C 3,5 km/h (1 Bft)
16.12.2019 13:05 12,1 C 6,6 C 10,3 C 13,8 C 13,8 C 1,7 C 81 % 88 % 1011,1 hPa 0,0 l/m 4,2 km/h (1 Bft) S-SO 157 0 min 8,9 C 13,8 C 8,2 km/h (2 Bft)
16.12.2019 13:10 12,3 C 6,6 C 10,4 C 14,1 C 14,1 C 1,8 C 79 % 87 % 1011,1 hPa 0,0 l/m 4,0 km/h (1 Bft) S-SO 157 0 min 8,8 C 14,1 C 6,3 km/h (2 Bft)
16.12.2019 13:15 12,4 C 6,6 C 10,6 C 14,2 C 14,2 C 1,8 C 78 % 87 % 1011,1 hPa 0,0 l/m 3,5 km/h (1 Bft) O-NO 67 0 min 8,7 C 14,2 C 3,2 km/h (1 Bft)
16.12.2019 13:20 12,5 C 6,6 C 10,6 C 14,2 C 14,2 C 1,7 C 77 % 86 % 1010,9 hPa 0,0 l/m 2,1 km/h (1 Bft) O-NO 67 0 min 8,6 C 14,2 C 0,0 km/h (0 Bft)
16.12.2019 13:25 12,5 C 6,6 C 10,7 C 14,1 C 14,1 C 1,6 C 77 % 87 % 1010,9 hPa 0,0 l/m 1,6 km/h (1 Bft) W-SW 247 0 min 8,6 C 14,1 C 1,9 km/h (1 Bft)
16.12.2019 13:30 12,7 C 6,6 C 10,7 C 14,1 C 14,1 C 1,4 C 76 % 86 % 1010,9 hPa 0,0 l/m 1,3 km/h (1 Bft) O-SO 112 0 min 8,6 C 14,1 C 2,4 km/h (1 Bft)
16.12.2019 13:35 12,7 C 6,6 C 10,8 C 14,0 C 14,0 C 1,3 C 76 % 86 % 1010,9 hPa 0,0 l/m 2,1 km/h (1 Bft) SO 135 0 min 8,6 C 14,0 C 7,2 km/h (2 Bft)
16.12.2019 13:40 12,8 C 6,6 C 10,9 C 14,0 C 14,0 C 1,2 C 75 % 86 % 1010,9 hPa 0,0 l/m 3,2 km/h (1 Bft) S 180 0 min 8,5 C 14,0 C 2,7 km/h (1 Bft)
16.12.2019 13:45 12,9 C 6,7 C 11,0 C 14,0 C 14,0 C 1,1 C 74 % 85 % 1010,9 hPa 0,0 l/m 2,9 km/h (1 Bft) W-SW 247 0 min 8,4 C 14,0 C 5,5 km/h (1 Bft)
16.12.2019 13:50 12,8 C 6,7 C 11,0 C 14,2 C 14,2 C 1,4 C 74 % 85 % 1010,9 hPa 0,0 l/m 1,1 km/h (1 Bft) O-SO 112 0 min 8,3 C 14,2 C 1,6 km/h (1 Bft)
16.12.2019 13:55 12,8 C 6,7 C 11,0 C 14,2 C 14,2 C 1,4 C 74 % 86 % 1010,9 hPa 0,0 l/m 1,1 km/h (1 Bft) O-SO 112 0 min 8,3 C 14,2 C 2,1 km/h (1 Bft)
16.12.2019 14:00 12,9 C 6,7 C 10,9 C 14,0 C 14,0 C 1,1 C 73 % 86 % 1010,8 hPa 0,0 l/m 0,8 km/h (0 Bft) O-SO 112 0 min 8,2 C 14,0 C 2,6 km/h (1 Bft)
16.12.2019 14:05 12,9 C 6,7 C 10,9 C 13,8 C 13,8 C 0,9 C 73 % 86 % 1010,8 hPa 0,0 l/m 0,8 km/h (0 Bft) S 180 0 min 8,2 C 13,8 C 0,0 km/h (0 Bft)
16.12.2019 14:10 12,8 C 6,7 C 10,8 C 13,6 C 13,6 C 0,8 C 73 % 86 % 1010,8 hPa 0,0 l/m 1,1 km/h (1 Bft) N-NO 22 0 min 8,1 C 13,6 C 1,6 km/h (1 Bft)
16.12.2019 14:15 12,7 C 6,7 C 10,8 C 13,7 C 13,7 C 1,0 C 73 % 86 % 1010,8 hPa 0,0 l/m 1,6 km/h (1 Bft) SW 225 0 min 8,0 C 13,7 C 1,8 km/h (1 Bft)
16.12.2019 14:20 12,7 C 6,7 C 10,5 C 13,4 C 13,4 C 0,7 C 73 % 86 % 1010,9 hPa 0,0 l/m 2,1 km/h (1 Bft) SW 225 0 min 8,0 C 13,4 C 2,3 km/h (1 Bft)
16.12.2019 14:25 12,6 C 6,7 C 10,4 C 13,2 C 13,2 C 0,6 C 73 % 86 % 1010,9 hPa 0,0 l/m 2,1 km/h (1 Bft) S-SO 157 0 min 7,9 C 13,2 C 0,0 km/h (0 Bft)
16.12.2019 14:30 12,5 C 6,8 C 10,2 C 12,8 C 12,8 C 0,3 C 73 % 87 % 1010,9 hPa 0,0 l/m 0,8 km/h (0 Bft) O-SO 112 0 min 7,8 C 12,8 C 0,0 km/h (0 Bft)
16.12.2019 14:35 12,3 C 6,8 C 10,0 C 12,6 C 12,6 C 0,3 C 73 % 87 % 1010,9 hPa 0,0 l/m 0,0 km/h (0 Bft) O-NO 67 0 min 7,6 C 12,6 C 0,0 km/h (0 Bft)
16.12.2019 14:40 12,0 C 6,8 C 9,7 C 12,3 C 12,3 C 0,3 C 74 % 87 % 1010,5 hPa 0,0 l/m 0,0 km/h (0 Bft) O-NO 67 0 min 7,5 C 12,3 C 0,0 km/h (0 Bft)
16.12.2019 14:45 11,9 C 6,8 C 9,5 C 12,1 C 12,1 C 0,2 C 74 % 87 % 1010,5 hPa 0,0 l/m 0,0 km/h (0 Bft) NO 45 0 min 7,4 C 12,1 C 0,0 km/h (0 Bft)
16.12.2019 14:50 11,7 C 6,8 C 9,3 C 12,0 C 12,0 C 0,3 C 74 % 87 % 1010,5 hPa 0,0 l/m 0,0 km/h (0 Bft) W-NW 292 0 min 7,2 C 12,0 C 0,0 km/h (0 Bft)
16.12.2019 14:55 11,7 C 6,8 C 9,1 C 11,8 C 11,8 C 0,1 C 75 % 87 % 1010,5 hPa 0,0 l/m 0,0 km/h (0 Bft) NW 315 0 min 7,4 C 11,8 C 0,0 km/h (0 Bft)
16.12.2019 15:00 11,5 C 6,8 C 9,0 C 11,5 C 11,5 C 0,0 C 75 % 88 % 1010,6 hPa 0,0 l/m 0,0 km/h (0 Bft) NW 315 0 min 7,2 C 11,5 C 0,0 km/h (0 Bft)
16.12.2019 15:05 11,3 C 6,9 C 8,9 C 11,3 C 11,3 C 0,0 C 75 % 88 % 1010,6 hPa 0,0 l/m 0,0 km/h (0 Bft) W 270 0 min 7,0 C 11,3 C 0,0 km/h (0 Bft)
16.12.2019 15:10 11,2 C 7,0 C 8,8 C 11,2 C 11,1 C 0,0 C 76 % 88 % 1010,6 hPa 0,0 l/m 0,0 km/h (0 Bft) W-NW 292 0 min 7,1 C 11,1 C 0,0 km/h (0 Bft)
16.12.2019 15:15 11,1 C 7,0 C 8,8 C 11,0 C 10,9 C 0,0 C 76 % 88 % 1010,6 hPa 0,0 l/m 0,0 km/h (0 Bft) NW 315 0 min 7,0 C 10,9 C 0,0 km/h (0 Bft)
16.12.2019 15:20 10,8 C 7,0 C 8,7 C 10,8 C 10,7 C 0,0 C 76 % 88 % 1010,8 hPa 0,0 l/m 0,0 km/h (0 Bft) N-NW 337 0 min 6,7 C 10,7 C 0,0 km/h (0 Bft)
16.12.2019 15:25 10,8 C 7,0 C 8,5 C 10,7 C 10,5 C 0,0 C 76 % 88 % 1010,8 hPa 0,0 l/m 0,0 km/h (0 Bft) NW 315 0 min 6,7 C 10,5 C 0,0 km/h (0 Bft)
16.12.2019 15:30 10,6 C 7,0 C 8,3 C 10,5 C 10,2 C 0,0 C 77 % 88 % 1010,8 hPa 0,0 l/m 0,0 km/h (0 Bft) NO 45 0 min 6,7 C 10,2 C 0,0 km/h (0 Bft)
16.12.2019 15:35 10,4 C 7,0 C 8,1 C 10,3 C 10,1 C 0,0 C 77 % 88 % 1010,8 hPa 0,0 l/m 0,0 km/h (0 Bft) NW 315 0 min 6,5 C 10,1 C 0,0 km/h (0 Bft)
16.12.2019 15:40 10,3 C 7,0 C 7,9 C 10,2 C 9,9 C 0,0 C 77 % 89 % 1010,7 hPa 0,0 l/m 0,0 km/h (0 Bft) N-NO 22 0 min 6,4 C 9,9 C 0,0 km/h (0 Bft)
16.12.2019 15:45 10,1 C 7,1 C 7,7 C 10,0 C 9,7 C 0,0 C 78 % 89 % 1010,7 hPa 0,0 l/m 0,2 km/h (0 Bft) O-NO 67 0 min 6,4 C 9,7 C 1,8 km/h (1 Bft)
16.12.2019 15:50 9,9 C 7,1 C 7,5 C 9,8 C 9,7 C 0,0 C 78 % 88 % 1010,7 hPa 0,0 l/m 0,2 km/h (0 Bft) O-NO 67 0 min 6,2 C 9,7 C 0,0 km/h (0 Bft)
16.12.2019 15:55 9,7 C 7,1 C 7,5 C 9,6 C 9,5 C 0,0 C 79 % 88 % 1010,7 hPa 0,0 l/m 0,2 km/h (0 Bft) NO 45 0 min 6,2 C 9,5 C 0,0 km/h (0 Bft)
16.12.2019 16:00 9,6 C 7,1 C 7,5 C 9,5 C 9,3 C 0,0 C 79 % 89 % 1011,1 hPa 0,0 l/m 0,2 km/h (0 Bft) O-NO 67 0 min 6,1 C 9,3 C 0,0 km/h (0 Bft)
16.12.2019 16:05 9,5 C 7,1 C 7,3 C 9,4 C 9,1 C 0,0 C 79 % 89 % 1011,1 hPa 0,0 l/m 0,0 km/h (0 Bft) O-NO 67 0 min 6,0 C 9,1 C 0,0 km/h (0 Bft)
16.12.2019 16:10 9,3 C 7,2 C 7,1 C 9,1 C 8,7 C 0,0 C 80 % 89 % 1011,1 hPa 0,0 l/m 0,0 km/h (0 Bft) NO 45 0 min 6,0 C 8,7 C 0,0 km/h (0 Bft)
16.12.2019 16:15 9,2 C 7,2 C 6,9 C 8,9 C 8,4 C 0,0 C 80 % 89 % 1011,1 hPa 0,0 l/m 0,0 km/h (0 Bft) NO 45 0 min 5,9 C 8,4 C 0,0 km/h (0 Bft)
16.12.2019 16:20 8,8 C 7,2 C 6,7 C 8,5 C 8,0 C 0,0 C 79 % 89 % 1010,9 hPa 0,0 l/m 0,0 km/h (0 Bft) NO 45 0 min 5,4 C 8,0 C 0,0 km/h (0 Bft)
16.12.2019 16:25 8,6 C 7,3 C 6,6 C 8,3 C 7,6 C 0,0 C 79 % 89 % 1010,9 hPa 0,0 l/m 0,0 km/h (0 Bft) NW 315 0 min 5,2 C 7,6 C 0,0 km/h (0 Bft)
16.12.2019 16:30 8,4 C 7,3 C 6,3 C 8,1 C 7,5 C 0,0 C 80 % 89 % 1010,9 hPa 0,0 l/m 0,0 km/h (0 Bft) O-NO 67 0 min 5,2 C 7,5 C 0,0 km/h (0 Bft)
16.12.2019 16:35 8,3 C 7,3 C 6,2 C 8,0 C 7,5 C 0,0 C 80 % 89 % 1010,9 hPa 0,0 l/m 0,0 km/h (0 Bft) O-NO 67 0 min 5,1 C 7,5 C 0,0 km/h (0 Bft)
16.12.2019 16:40 8,1 C 7,3 C 6,0 C 7,8 C 7,3 C 0,0 C 80 % 89 % 1010,8 hPa 0,0 l/m 0,0 km/h (0 Bft) O-NO 67 0 min 4,9 C 7,3 C 0,0 km/h (0 Bft)
16.12.2019 16:45 7,9 C 7,3 C 5,9 C 7,6 C 7,1 C 0,0 C 80 % 89 % 1010,8 hPa 0,0 l/m 0,0 km/h (0 Bft) O-NO 67 0 min 4,7 C 7,1 C 0,0 km/h (0 Bft)
16.12.2019 16:50 7,6 C 7,4 C 5,7 C 7,3 C 6,8 C 0,0 C 80 % 89 % 1010,8 hPa 0,0 l/m 0,0 km/h (0 Bft) O-NO 67 0 min 4,4 C 6,8 C 0,0 km/h (0 Bft)
16.12.2019 16:55 7,5 C 7,4 C 5,5 C 7,2 C 6,6 C 0,0 C 80 % 89 % 1010,8 hPa 0,0 l/m 0,0 km/h (0 Bft) O-NO 67 0 min 4,3 C 6,6 C 0,0 km/h (0 Bft)
16.12.2019 17:00 7,3 C 7,4 C 5,3 C 7,0 C 6,4 C 0,0 C 81 % 89 % 1010,9 hPa 0,0 l/m 0,0 km/h (0 Bft) O-NO 67 0 min 4,3 C 6,4 C 0,0 km/h (0 Bft)
16.12.2019 17:05 7,2 C 7,4 C 5,2 C 6,8 C 6,1 C 0,0 C 81 % 89 % 1010,9 hPa 0,0 l/m 0,0 km/h (0 Bft) N-NO 22 0 min 4,2 C 6,1 C 0,0 km/h (0 Bft)
16.12.2019 17:10 7,1 C 7,4 C 5,1 C 6,7 C 6,0 C 0,0 C 82 % 90 % 1010,9 hPa 0,0 l/m 0,0 km/h (0 Bft) O-NO 67 0 min 4,2 C 6,0 C 0,0 km/h (0 Bft)
16.12.2019 17:15 6,9 C 7,4 C 5,0 C 6,6 C 6,0 C 0,0 C 82 % 90 % 1010,9 hPa 0,0 l/m 0,0 km/h (0 Bft) NO 45 0 min 4,0 C 6,0 C 0,0 km/h (0 Bft)
16.12.2019 17:20 6,8 C 7,4 C 4,9 C 6,5 C 5,9 C 0,0 C 83 % 90 % 1010,6 hPa 0,0 l/m 0,0 km/h (0 Bft) O-NO 67 0 min 4,1 C 5,9 C 0,0 km/h (0 Bft)
16.12.2019 17:25 6,7 C 7,4 C 4,9 C 6,4 C 5,8 C 0,0 C 83 % 90 % 1010,6 hPa 0,0 l/m 0,0 km/h (0 Bft) NO 45 0 min 4,0 C 5,8 C 0,0 km/h (0 Bft)
16.12.2019 17:30 6,4 C 7,4 C 4,7 C 6,1 C 5,5 C 0,0 C 83 % 90 % 1010,6 hPa 0,0 l/m 0,0 km/h (0 Bft) W 270 0 min 3,7 C 5,5 C 0,0 km/h (0 Bft)
16.12.2019 17:35 6,5 C 7,4 C 4,7 C 6,2 C 5,5 C 0,0 C 83 % 90 % 1010,6 hPa 0,0 l/m 0,0 km/h (0 Bft) O 90 0 min 3,8 C 5,5 C 0,0 km/h (0 Bft)
16.12.2019 17:40 6,3 C 7,4 C 4,7 C 6,0 C 5,4 C 0,0 C 84 % 90 % 1011,1 hPa 0,0 l/m 0,0 km/h (0 Bft) W 270 0 min 3,8 C 5,4 C 0,0 km/h (0 Bft)
16.12.2019 17:45 6,3 C 7,4 C 4,5 C 6,0 C 5,3 C 0,0 C 84 % 90 % 1011,1 hPa 0,0 l/m 0,0 km/h (0 Bft) W 270 0 min 3,8 C 5,3 C 0,0 km/h (0 Bft)
16.12.2019 17:50 6,0 C 7,4 C 4,4 C 5,7 C 5,1 C 0,0 C 84 % 90 % 1011,1 hPa 0,0 l/m 0,0 km/h (0 Bft) W 270 0 min 3,5 C 5,1 C 0,0 km/h (0 Bft)
16.12.2019 17:55 5,9 C 7,4 C 4,3 C 5,6 C 5,0 C 0,0 C 84 % 90 % 1011,1 hPa 0,0 l/m 0,0 km/h (0 Bft) SW 225 0 min 3,4 C 5,0 C 0,0 km/h (0 Bft)
16.12.2019 18:00 5,7 C 7,4 C 4,2 C 5,5 C 5,0 C 0,0 C 84 % 90 % 1011,0 hPa 0,0 l/m 0,0 km/h (0 Bft) O-NO 67 0 min 3,2 C 5,0 C 0,0 km/h (0 Bft)
16.12.2019 18:05 5,7 C 7,4 C 4,0 C 5,5 C 5,0 C 0,0 C 84 % 90 % 1011,0 hPa 0,0 l/m 0,0 km/h (0 Bft) NO 45 0 min 3,2 C 5,0 C 0,0 km/h (0 Bft)
16.12.2019 18:10 5,7 C 7,4 C 4,0 C 5,4 C 4,8 C 0,0 C 85 % 90 % 1011,0 hPa 0,0 l/m 0,0 km/h (0 Bft) N-NO 22 0 min 3,4 C 4,8 C 0,0 km/h (0 Bft)
16.12.2019 18:15 5,6 C 7,4 C 3,9 C 5,3 C 4,8 C 0,0 C 85 % 90 % 1011,0 hPa 0,0 l/m 0,0 km/h (0 Bft) S-SW 202 0 min 3,3 C 4,8 C 0,0 km/h (0 Bft)
16.12.2019 18:20 5,4 C 7,4 C 3,8 C 5,1 C 4,5 C 0,0 C 85 % 90 % 1011,2 hPa 0,0 l/m 0,0 km/h (0 Bft) O-NO 67 0 min 3,1 C 4,5 C 0,0 km/h (0 Bft)
16.12.2019 18:25 5,3 C 7,4 C 3,6 C 5,0 C 4,5 C 0,0 C 85 % 90 % 1011,2 hPa 0,0 l/m 0,3 km/h (0 Bft) N-NO 22 0 min 3,0 C 4,5 C 0,0 km/h (0 Bft)
16.12.2019 18:30 5,1 C 7,4 C 3,5 C 4,8 C 4,3 C 0,0 C 85 % 90 % 1011,2 hPa 0,0 l/m 0,3 km/h (0 Bft) N 360 0 min 2,8 C 4,3 C 0,0 km/h (0 Bft)
16.12.2019 18:35 5,1 C 7,4 C 3,5 C 4,8 C 4,2 C 0,0 C 86 % 90 % 1011,2 hPa 0,0 l/m 0,0 km/h (0 Bft) W-NW 292 0 min 3,0 C 4,2 C 0,0 km/h (0 Bft)
16.12.2019 18:40 4,9 C 7,4 C 3,5 C 4,7 C 4,2 C 0,0 C 86 % 90 % 1010,8 hPa 0,0 l/m 0,0 km/h (0 Bft) N-NO 22 0 min 2,8 C 4,2 C 0,0 km/h (0 Bft)
16.12.2019 18:45 4,9 C 7,4 C 3,5 C 4,7 C 4,2 C 0,0 C 86 % 91 % 1010,8 hPa 0,0 l/m 0,2 km/h (0 Bft) O-NO 67 0 min 2,8 C 4,2 C 1,6 km/h (1 Bft)
16.12.2019 18:50 4,7 C 7,4 C 3,3 C 4,5 C 4,1 C 0,0 C 86 % 90 % 1010,8 hPa 0,0 l/m 0,2 km/h (0 Bft) NO 45 0 min 2,6 C 4,1 C 0,0 km/h (0 Bft)
16.12.2019 18:55 4,7 C 7,4 C 3,2 C 4,5 C 4,0 C 0,0 C 86 % 90 % 1010,8 hPa 0,0 l/m 0,0 km/h (0 Bft) S 180 0 min 2,6 C 4,0 C 0,0 km/h (0 Bft)
16.12.2019 19:00 4,5 C 7,4 C 3,1 C 4,3 C 3,9 C 0,0 C 86 % 90 % 1010,9 hPa 0,0 l/m 0,3 km/h (0 Bft) S-SO 157 0 min 2,4 C 3,9 C 2,1 km/h (1 Bft)
16.12.2019 19:05 4,4 C 7,5 C 3,1 C 4,2 C 3,8 C 0,0 C 86 % 91 % 1010,9 hPa 0,0 l/m 0,5 km/h (0 Bft) N-NO 22 0 min 2,3 C 3,8 C 2,6 km/h (1 Bft)
16.12.2019 19:10 4,4 C 7,5 C 3,1 C 4,2 C 3,7 C 0,0 C 87 % 91 % 1010,9 hPa 0,0 l/m 0,8 km/h (0 Bft) N-NW 337 0 min 2,4 C 3,7 C 1,8 km/h (1 Bft)
16.12.2019 19:15 4,3 C 7,5 C 3,2 C 4,1 C 3,6 C 0,0 C 87 % 91 % 1010,9 hPa 0,0 l/m 1,0 km/h (0 Bft) W-SW 247 0 min 2,3 C 3,6 C 0,0 km/h (0 Bft)
16.12.2019 19:20 4,1 C 7,5 C 3,0 C 3,8 C 3,3 C 0,0 C 87 % 91 % 1011,0 hPa 0,0 l/m 0,3 km/h (0 Bft) W-SW 247 0 min 2,1 C 3,3 C 0,0 km/h (0 Bft)
16.12.2019 19:25 4,0 C 7,5 C 2,9 C 3,7 C 3,1 C 0,0 C 87 % 91 % 1011,0 hPa 0,0 l/m 0,0 km/h (0 Bft) SW 225 0 min 2,0 C 3,1 C 0,0 km/h (0 Bft)
16.12.2019 19:30 3,8 C 7,4 C 2,7 C 3,5 C 2,8 C 0,0 C 87 % 91 % 1011,0 hPa 0,0 l/m 0,0 km/h (0 Bft) W-SW 247 0 min 1,8 C 2,8 C 0,0 km/h (0 Bft)
16.12.2019 19:35 3,7 C 7,4 C 2,6 C 3,4 C 2,8 C 0,0 C 87 % 91 % 1011,0 hPa 0,0 l/m 0,0 km/h (0 Bft) O-NO 67 0 min 1,7 C 2,8 C 0,0 km/h (0 Bft)
16.12.2019 19:40 3,7 C 7,4 C 2,5 C 3,3 C 2,6 C 0,0 C 87 % 91 % 1011,0 hPa 0,0 l/m 0,0 km/h (0 Bft) O-NO 67 0 min 1,7 C 2,6 C 0,0 km/h (0 Bft)
16.12.2019 19:45 3,5 C 7,4 C 2,4 C 3,2 C 2,5 C 0,0 C 87 % 91 % 1011,0 hPa 0,0 l/m 0,0 km/h (0 Bft) O-NO 67 0 min 1,5 C 2,5 C 0,0 km/h (0 Bft)
16.12.2019 19:50 3,5 C 7,4 C 2,3 C 3,2 C 2,6 C 0,0 C 87 % 91 % 1011,0 hPa 0,0 l/m 0,0 km/h (0 Bft) O-NO 67 0 min 1,5 C 2,6 C 0,0 km/h (0 Bft)
16.12.2019 19:55 3,3 C 7,4 C 2,2 C 3,0 C 2,5 C 0,0 C 87 % 91 % 1011,0 hPa 0,0 l/m 0,0 km/h (0 Bft) S-SO 157 0 min 1,3 C 2,5 C 0,0 km/h (0 Bft)
16.12.2019 20:00 3,3 C 7,4 C 2,2 C 3,0 C 2,5 C 0,0 C 87 % 91 % 1010,8 hPa 0,0 l/m 0,0 km/h (0 Bft) S-SO 157 0 min 1,3 C 2,5 C 0,0 km/h (0 Bft)
16.12.2019 20:05 3,1 C 7,4 C 2,2 C 2,9 C 2,5 C 0,0 C 87 % 91 % 1010,8 hPa 0,0 l/m 0,0 km/h (0 Bft) S-SO 157 0 min 1,2 C 2,5 C 0,0 km/h (0 Bft)
16.12.2019 20:10 3,1 C 7,4 C 2,0 C 2,9 C 2,5 C 0,0 C 87 % 90 % 1010,8 hPa 0,0 l/m 0,0 km/h (0 Bft) S-SO 157 0 min 1,2 C 2,5 C 0,0 km/h (0 Bft)
16.12.2019 20:15 3,0 C 7,4 C 2,0 C 2,8 C 2,5 C 0,0 C 87 % 90 % 1010,8 hPa 0,0 l/m 0,0 km/h (0 Bft) S-SO 157 0 min 1,1 C 2,5 C 0,0 km/h (0 Bft)
16.12.2019 20:20 2,9 C 7,4 C 1,9 C 2,7 C 2,4 C 0,0 C 87 % 91 % 1011,0 hPa 0,0 l/m 0,0 km/h (0 Bft) S 180 0 min 1,0 C 2,4 C 0,0 km/h (0 Bft)
16.12.2019 20:25 2,8 C 7,4 C 1,9 C 2,6 C 2,3 C 0,0 C 87 % 91 % 1011,0 hPa 0,0 l/m 0,0 km/h (0 Bft) S 180 0 min 0,9 C 2,3 C 0,0 km/h (0 Bft)
16.12.2019 20:30 2,8 C 7,4 C 1,8 C 2,6 C 2,1 C 0,0 C 87 % 91 % 1011,0 hPa 0,0 l/m 0,0 km/h (0 Bft) S-SO 157 0 min 0,9 C 2,1 C 0,0 km/h (0 Bft)
16.12.2019 20:35 2,7 C 7,3 C 1,8 C 2,5 C 2,1 C 0,0 C 87 % 91 % 1011,0 hPa 0,0 l/m 0,0 km/h (0 Bft) S-SO 157 0 min 0,8 C 2,1 C 0,0 km/h (0 Bft)
16.12.2019 20:40 2,7 C 7,3 C 1,7 C 2,5 C 2,0 C 0,0 C 87 % 91 % 1010,9 hPa 0,0 l/m 0,0 km/h (0 Bft) S-SO 157 0 min 0,8 C 2,0 C 0,0 km/h (0 Bft)
16.12.2019 20:45 2,5 C 7,3 C 1,6 C 2,3 C 2,0 C 0,0 C 87 % 91 % 1010,9 hPa 0,0 l/m 0,0 km/h (0 Bft) S 180 0 min 0,6 C 2,0 C 0,0 km/h (0 Bft)
16.12.2019 20:50 2,4 C 7,3 C 1,7 C 2,3 C 2,0 C 0,0 C 87 % 91 % 1010,9 hPa 0,0 l/m 0,0 km/h (0 Bft) NW 315 0 min 0,5 C 2,0 C 0,0 km/h (0 Bft)
16.12.2019 20:55 2,4 C 7,3 C 1,8 C 2,3 C 2,1 C 0,0 C 87 % 91 % 1010,9 hPa 0,0 l/m 0,0 km/h (0 Bft) NW 315 0 min 0,5 C 2,1 C 0,0 km/h (0 Bft)
16.12.2019 21:00 2,5 C 7,3 C 1,7 C 2,4 C 2,1 C 0,0 C 88 % 91 % 1010,5 hPa 0,0 l/m 0,0 km/h (0 Bft) NW 315 0 min 0,7 C 2,1 C 0,0 km/h (0 Bft)
16.12.2019 21:05 2,4 C 7,3 C 1,6 C 2,3 C 2,0 C 0,0 C 88 % 91 % 1010,5 hPa 0,0 l/m 0,0 km/h (0 Bft) NW 315 0 min 0,6 C 2,0 C 0,0 km/h (0 Bft)
16.12.2019 21:10 2,4 C 7,3 C 1,5 C 2,3 C 2,0 C 0,0 C 88 % 91 % 1010,5 hPa 0,0 l/m 0,0 km/h (0 Bft) NW 315 0 min 0,6 C 2,0 C 0,0 km/h (0 Bft)
16.12.2019 21:15 2,3 C 7,3 C 1,5 C 2,2 C 1,9 C 0,0 C 88 % 91 % 1010,5 hPa 0,0 l/m 0,0 km/h (0 Bft) O-NO 67 0 min 0,5 C 1,9 C 0,0 km/h (0 Bft)
16.12.2019 21:20 2,2 C 7,3 C 1,5 C 2,1 C 1,9 C 0,0 C 87 % 91 % 1010,8 hPa 0,0 l/m 0,0 km/h (0 Bft) NO 45 0 min 0,3 C 1,9 C 0,0 km/h (0 Bft)
16.12.2019 21:25 2,3 C 7,3 C 1,5 C 2,2 C 1,9 C 0,0 C 88 % 91 % 1010,8 hPa 0,0 l/m 0,0 km/h (0 Bft) N-NO 22 0 min 0,5 C 1,9 C 0,0 km/h (0 Bft)
16.12.2019 21:30 2,2 C 7,3 C 1,4 C 2,1 C 2,0 C 0,0 C 88 % 91 % 1010,8 hPa 0,0 l/m 0,0 km/h (0 Bft) N-NO 22 0 min 0,4 C 2,0 C 0,0 km/h (0 Bft)
16.12.2019 21:35 2,1 C 7,3 C 1,4 C 2,0 C 1,9 C 0,0 C 88 % 91 % 1010,8 hPa 0,0 l/m 0,0 km/h (0 Bft) W-SW 247 0 min 0,3 C 1,9 C 0,0 km/h (0 Bft)
16.12.2019 21:40 2,1 C 7,2 C 1,5 C 2,0 C 1,9 C 0,0 C 88 % 91 % 1010,8 hPa 0,0 l/m 0,0 km/h (0 Bft) NO 45 0 min 0,3 C 1,9 C 0,0 km/h (0 Bft)
16.12.2019 21:45 2,1 C 7,2 C 1,4 C 2,0 C 1,8 C 0,0 C 88 % 91 % 1010,8 hPa 0,0 l/m 0,0 km/h (0 Bft) W 270 0 min 0,3 C 1,8 C 0,0 km/h (0 Bft)
16.12.2019 21:50 2,0 C 7,2 C 1,3 C 1,9 C 1,7 C 0,0 C 88 % 91 % 1010,8 hPa 0,0 l/m 0,0 km/h (0 Bft) O-NO 67 0 min 0,2 C 1,7 C 0,0 km/h (0 Bft)
16.12.2019 21:55 2,1 C 7,2 C 1,3 C 2,0 C 1,7 C 0,0 C 88 % 91 % 1010,8 hPa 0,0 l/m 0,2 km/h (0 Bft) W-SW 247 0 min 0,3 C 1,7 C 0,0 km/h (0 Bft)
16.12.2019 22:00 2,0 C 7,2 C 1,3 C 1,9 C 1,8 C 0,0 C 88 % 91 % 1010,6 hPa 0,0 l/m 0,2 km/h (0 Bft) NO 45 0 min 0,2 C 1,8 C 0,0 km/h (0 Bft)
16.12.2019 22:05 1,9 C 7,2 C 1,2 C 1,9 C 1,8 C 0,0 C 88 % 91 % 1010,6 hPa 0,0 l/m 0,0 km/h (0 Bft) N 360 0 min 0,1 C 1,8 C 0,0 km/h (0 Bft)
16.12.2019 22:10 1,9 C 7,2 C 1,3 C 1,9 C 1,8 C 0,0 C 88 % 91 % 1010,6 hPa 0,0 l/m 0,0 km/h (0 Bft) W-SW 247 0 min 0,1 C 1,8 C 0,0 km/h (0 Bft)
16.12.2019 22:15 1,9 C 7,2 C 1,3 C 1,9 C 1,8 C 0,0 C 88 % 91 % 1010,6 hPa 0,0 l/m 0,0 km/h (0 Bft) O-NO 67 0 min 0,1 C 1,8 C 0,0 km/h (0 Bft)
16.12.2019 22:20 1,8 C 7,2 C 1,2 C 1,8 C 1,8 C 0,0 C 88 % 91 % 1010,8 hPa 0,0 l/m 0,0 km/h (0 Bft) SW 225 0 min 0,0 C 1,8 C 0,0 km/h (0 Bft)
16.12.2019 22:25 1,9 C 7,2 C 1,2 C 1,8 C 1,7 C 0,0 C 88 % 91 % 1010,8 hPa 0,0 l/m 0,0 km/h (0 Bft) W-SW 247 0 min 0,1 C 1,7 C 0,0 km/h (0 Bft)
16.12.2019 22:30 1,7 C 7,2 C 1,2 C 1,6 C 1,4 C 0,0 C 88 % 91 % 1010,8 hPa 0,0 l/m 0,0 km/h (0 Bft) W-SW 247 0 min -0,1 C 1,4 C 0,0 km/h (0 Bft)
16.12.2019 22:35 1,7 C 7,2 C 1,1 C 1,6 C 1,5 C 0,0 C 88 % 91 % 1010,8 hPa 0,0 l/m 0,0 km/h (0 Bft) W-SW 247 0 min -0,1 C 1,5 C 0,0 km/h (0 Bft)
16.12.2019 22:40 1,6 C 7,1 C 1,0 C 1,5 C 1,3 C 0,0 C 88 % 91 % 1010,2 hPa 0,0 l/m 0,0 km/h (0 Bft) NW 315 0 min -0,2 C 1,3 C 0,0 km/h (0 Bft)
16.12.2019 22:45 1,7 C 7,1 C 1,1 C 1,6 C 1,3 C 0,0 C 88 % 91 % 1010,2 hPa 0,0 l/m 0,3 km/h (0 Bft) NW 315 0 min -0,1 C 1,3 C 2,4 km/h (1 Bft)
16.12.2019 22:50 1,6 C 7,1 C 1,1 C 1,6 C 1,5 C 0,0 C 88 % 91 % 1010,2 hPa 0,0 l/m 0,6 km/h (0 Bft) SW 225 0 min -0,2 C 1,5 C 0,0 km/h (0 Bft)
16.12.2019 22:55 1,6 C 7,1 C 1,1 C 1,7 C 1,7 C 0,1 C 88 % 91 % 1010,2 hPa 0,0 l/m 0,5 km/h (0 Bft) W 270 0 min -0,2 C 1,7 C 0,0 km/h (0 Bft)
16.12.2019 23:00 1,6 C 7,1 C 1,0 C 1,8 C 1,8 C 0,2 C 88 % 92 % 1010,6 hPa 0,0 l/m 0,0 km/h (0 Bft) NW 315 0 min -0,2 C 1,8 C 0,0 km/h (0 Bft)
16.12.2019 23:05 1,6 C 7,1 C 1,0 C 2,0 C 2,0 C 0,4 C 88 % 91 % 1010,6 hPa 0,0 l/m 0,0 km/h (0 Bft) NW 315 0 min -0,2 C 2,0 C 0,0 km/h (0 Bft)
16.12.2019 23:10 1,6 C 7,1 C 0,9 C 2,0 C 2,0 C 0,4 C 88 % 92 % 1010,6 hPa 0,0 l/m 0,0 km/h (0 Bft) NW 315 0 min -0,2 C 2,0 C 0,0 km/h (0 Bft)
16.12.2019 23:15 1,6 C 7,1 C 0,8 C 2,0 C 2,0 C 0,4 C 88 % 91 % 1010,6 hPa 0,0 l/m 0,0 km/h (0 Bft) W-NW 292 0 min -0,2 C 2,0 C 0,0 km/h (0 Bft)
16.12.2019 23:20 1,5 C 7,1 C 0,9 C 1,9 C 1,9 C 0,4 C 88 % 92 % 1010,0 hPa 0,0 l/m 0,0 km/h (0 Bft) N-NW 337 0 min -0,3 C 1,9 C 0,0 km/h (0 Bft)
16.12.2019 23:25 1,5 C 7,1 C 1,0 C 2,0 C 2,0 C 0,5 C 88 % 92 % 1010,0 hPa 0,0 l/m 0,2 km/h (0 Bft) W-NW 292 0 min -0,3 C 2,0 C 0,0 km/h (0 Bft)
16.12.2019 23:30 1,7 C 7,1 C 1,3 C 2,5 C 2,5 C 0,8 C 88 % 92 % 1010,0 hPa 0,0 l/m 0,6 km/h (0 Bft) NW 315 0 min -0,1 C 2,5 C 1,6 km/h (1 Bft)
16.12.2019 23:35 1,9 C 7,1 C 1,5 C 2,8 C 2,8 C 0,9 C 88 % 92 % 1010,0 hPa 0,0 l/m 0,8 km/h (0 Bft) W 270 0 min 0,1 C 2,8 C 0,0 km/h (0 Bft)
16.12.2019 23:40 2,1 C 7,1 C 1,7 C 3,1 C 3,1 C 1,0 C 88 % 92 % 1010,4 hPa 0,0 l/m 0,5 km/h (0 Bft) W-NW 292 0 min 0,3 C 3,1 C 1,6 km/h (1 Bft)
16.12.2019 23:45 2,1 C 7,1 C 1,7 C 3,2 C 3,2 C 1,1 C 88 % 92 % 1010,4 hPa 0,0 l/m 0,3 km/h (0 Bft) O 90 0 min 0,3 C 3,2 C 0,0 km/h (0 Bft)
16.12.2019 23:50 2,0 C 7,1 C 1,4 C 3,1 C 3,1 C 1,1 C 88 % 92 % 1010,4 hPa 0,0 l/m 0,2 km/h (0 Bft) O-NO 67 0 min 0,2 C 3,1 C 0,0 km/h (0 Bft)
16.12.2019 23:55 2,1 C 7,1 C 1,4 C 2,9 C 2,9 C 0,8 C 88 % 92 % 1010,4 hPa 0,0 l/m 0,0 km/h (0 Bft) O-NO 67 0 min 0,3 C 2,9 C 0,0 km/h (0 Bft)
_ Min-Zeit 23:20 03:25 23:15 22:40 22:40 00:00 14:00 00:20 23:20 - 04:35 - - - 23:20 22:40 02:00
Minimum _ 1,5 C 6,4 C 0,8 C 1,5 C 1,3 C 0,0 C 73 % 85 % 1010,0 hPa - 0,0 km/h (0 Bft) - - - -0,3 C 1,3 C 0,0 km/h (0 Bft)
_ Max-Zeit 13:45 19:05 13:45 13:15 13:15 11:45 07:55 23:00 03:00 08:25 01:45 - - 08:20 13:05 13:15 00:25
Maximum _ 12,9 C 7,5 C 11,0 C 14,2 C 14,2 C 3,5 C 88 % 92 % 1014,1 hPa 0,7 l/m 5,8 km/h
SO (2 Bft)
- - 5 min 8,9 C 14,2 C 11,1 km/h
O-SO (2 Bft)
Durchschnitt _ 6,3 C 6,9 C 5,3 C 6,6 C 6,4 C 0,4 C 84 % 88 % 1012,0 hPa #0,7 l/m 0,7 km/h (0 Bft) S - #45 min. 3,8 C 6,4 C 1,1 km/h (0 Bft)
2019 www.wetterstation-wechselburg.de